Fort Eustis, VA

7:13 PM EST on November 20, 2019 (GMT -0500)
Felker Army Air Field

Weather History for KFAF - September, 2019

Change the Weather History Date:

Wednesday, September 25, 2019

  Actual Average Record
Temperature  
Mean Temperature 71 °F -  
Max Temperature 82 °F 75 °F 95 °F (2010)
Min Temperature 61 °F 60 °F 53 °F (2013)
Cooling Degree Days 6    
Growing Degree Days 21 (Base 50)    
Moisture  
Dew Point 56 °F    
Average Humidity 61    
Maximum Humidity 86    
Minimum Humidity 33    
Precipitation  
Precipitation 0.00 in - - ()
Sea Level Pressure  
Sea Level Pressure 29.91 in    
Wind  
Wind Speed 3 mph ()    
Max Wind Speed 9 mph    
Max Gust Speed -    
Visibility 10.0 miles    
Events      
Averages and records for this station are not official NWS values.
T = Trace of Precipitation, MM = Missing Value Source: Averaged Metar Reports

Daily Weather History Graph

Daily Weather History Graph

Search for Another Location

Airport or City:

Astronomy

Sep. 25, 2019 Rise Set
Actual Time 6:56 AM EDT 6:59 PM EDT
Civil Twilight 6:30 AM EDT 7:25 PM EDT
Nautical Twilight 6:00 AM EDT 7:55 PM EDT
Astronomical Twilight 5:29 AM EDT 8:25 PM EDT
Moon 2:55 AM EDT (9/25) 5:23 PM EDT (9/25)
Length of Visible Light 12h 54m
Length of Day
12h 02m
Waning Crescent, 14% of the Moon is Illuminated
Sep 25
Waning Crescent
Sep 28
New
Oct 5
First Quarter
Oct 13
Full
Oct 21
Last Quarter

Hourly Weather History & Observations

Time (EDT) Temp. Heat Index Dew Point Humidity Pressure Visibility Wind Dir Wind Speed Gust Speed Precip Events Conditions
12:56 AM 62.8 °F - 56.5 °F 80% 29.89 in 10.0 mi Calm Calm - N/A   Clear
1:56 AM 61.7 °F - 56.1 °F 82% 29.89 in 10.0 mi Calm Calm - N/A   Clear
2:56 AM 61.9 °F - 55.9 °F 81% 29.88 in 10.0 mi Calm Calm - N/A   Clear
3:56 AM 63.9 °F - 59.5 °F 86% 29.88 in 10.0 mi WNW 4.6 mph - N/A   Clear
4:56 AM 66.6 °F - 56.8 °F 71% 29.89 in 10.0 mi NNW 5.8 mph - N/A   Clear
5:56 AM 64.8 °F - 57.7 °F 78% 29.93 in 10.0 mi NW 6.9 mph - N/A   Clear
6:56 AM 64.8 °F - 57.4 °F 77% 29.94 in 10.0 mi Calm Calm - N/A   Partly Cloudy
7:56 AM 66.6 °F - 57.6 °F 73% 29.96 in 10.0 mi NNW 3.5 mph - N/A   Partly Cloudy
8:56 AM 69.3 °F - 57.4 °F 66% 29.97 in 10.0 mi North 3.5 mph - N/A   Partly Cloudy
9:56 AM 73.6 °F - 57.4 °F 57% 29.98 in 10.0 mi NE 3.5 mph - N/A   Partly Cloudy
10:56 AM 76.5 °F - 55.9 °F 49% 29.98 in 10.0 mi NW 4.6 mph - N/A   Clear
11:56 AM 77.7 °F - 56.5 °F 48% 29.97 in 10.0 mi WSW 4.6 mph - N/A   Clear
12:56 PM 78.6 °F - 48.6 °F 35% 29.95 in 10.0 mi West 4.6 mph - N/A   Partly Cloudy
1:56 PM 79.9 °F - 48.9 °F 34% 29.92 in 10.0 mi NW 4.6 mph - N/A   Partly Cloudy
2:56 PM 81.1 °F - 51.6 °F 36% 29.90 in 10.0 mi NNW 4.6 mph - N/A   Partly Cloudy
3:56 PM 81.7 °F - 49.8 °F 33% 29.88 in 10.0 mi Calm Calm - N/A   Partly Cloudy
4:56 PM 80.4 °F 80.2 °F 53.8 °F 40% 29.87 in 10.0 mi South 4.6 mph - N/A   Clear
5:56 PM 79.3 °F - 53.6 °F 41% 29.88 in 10.0 mi SSE 4.6 mph - N/A   Clear
6:56 PM 75.2 °F - 57.4 °F 54% 29.87 in 10.0 mi SE 4.6 mph - N/A   Clear
7:56 PM 72.3 °F - 56.7 °F 58% 29.88 in 10.0 mi SE 5.8 mph - N/A   Clear
8:56 PM 72.3 °F - 59.0 °F 63% 29.89 in 10.0 mi SSE 9.2 mph - N/A   Clear
9:56 PM 71.2 °F - 61.0 °F 70% 29.89 in 10.0 mi SSE 8.1 mph - N/A   Clear
10:56 PM 71.1 °F - 62.8 °F 75% 29.90 in 10.0 mi SSE 6.9 mph - N/A   Clear
11:56 PM 70.3 °F - 62.4 °F 76% 29.90 in 10.0 mi SSE 6.9 mph - N/A   Clear